STARLINK-33903, 63828

Orbit data source: Space-Track

STARLINK-33903, 63828 is a payload satellite owned by SpaceX/Seattle (US) in LEO that was launched on Sun, 04 May 2025 UTC via an FALCON 9 launch vehicle from the Air Force Eastern Test Range (AFETR). Payload-class satellites include a variety of spacecraft equipped with specific instruments for various scientific and technological missions. These include communications satellites like Starlink; space stations such as the ISS; scientific satellites like the Hubble; Earth observation satellites from companies like Planet Labs, Umbra, and HawkEye 360; GPS; miniature CubeSats for education and research; and military/defense satellites.

Loading next visibility...
Identifier
63828, 2025-092AA
Orbit
LEO
Country
Flag of USUS
Related business
Manufacturer
SpaceX/Seattle
Mission
Operational Commercial Communications
Bus & Motor
STARLINK V2MO, Unknown motor
Mass
575 kg wet, ~530 kg dry
Launch date (UTC)
2025-05-04 (9 months ago)
Launch vehicle
FALCON 9
Launch site
Air Force Eastern Test Range (AFETR)
Object type
Payload
Rocket body
Debris
Shape & HBR
Box + 2 Pan, 17.7 m
Radar Cross Section
36.964 m², Large (>1 m²)

Expand to show TLE details & history
Last TLE update: 14 hours ago

TLE from 14 hours ago
0 STARLINK-33903
1 63828U 25092AA  26034.61658932  .00031182  00000-0  11353-2 0  9990
2 63828  43.0008   4.9607 0008400 260.9210  99.0691 15.27623553 43451
Epoch: 2026-02-03T14:47Z
TLE epoch observation values (Epoch: 2026-02-03T14:47:53.317Z)
Latitude
-0.00003°
Longitude
9.19356°
Altitude
483.607 km
Speed
7.625 km/s
True Right ascension
00h 19m 50s
True Declination
0° 00' 00"
Sunlit
Object was in daylight at epoch
Visualization orbit readout
Latitude
Unknown
Longitude
Unknown
Altitude
Unknown
Speed
Unknown
Apparent Right ascension
Unknown
Apparent Declination
Unknown
Sunlit
N/A
Visualization observer readout
Local Sidereal Time
07:10:58
Azimuth
Unknown
Elevation
Unknown
Doppler factor
Unknown
Orbital elements
Apogee altitude
490.629 km
Perigee altitude
479.099 km
Semi-major axis
6,863.001 km
Eccentricity
0.00084
Inclination
43.0008°
RAAN
4.9607°
Arg. of periapsis
260.921°
True anomaly
99.16414°
Mean anomaly
99.0691°
Eccentric anomaly
99.11662°
Mean motion
3.81744 °/min
Orbital period
94.3 mins
BSTAR
0.0011353
Loading maneuver chart data...
Computing Atmospheric mass density...
Loading historical data...
Loading historical data...
Loading historical data...
Loading historical data...
Loading historical data...
Loading historical data...
Loading historical data...

Documentation

Showing up to 5 results
|